Location: Milton
(43.5183°N, 79.8775°W)
Time: 16:13:40
(UTC+00:00)

CAS-6 - Visible Passes

Search period start: 20 March 2023 00:00
Search period end: 30 March 2023 00:00
Orbit: 611 x 632 km, 97.9° (Epoch: 20 March)

Date Brightness Start Highest point End Pass type
(mag) Time Alt. Az. Time Alt. Az. Time Alt. Az.
24 Mar ? 03:00:38 11° N 03:00:38 11° N 03:00:45 10° N visible
25 Mar ? 03:18:36 11° N 03:18:36 11° N 03:18:50 10° N visible
26 Mar ? 03:36:35 11° N 03:36:35 11° N 03:36:49 10° N visible
27 Mar ? 03:54:33 11° NNW 03:54:33 11° NNW 03:54:40 10° NNW visible
28 Mar ? 02:35:19 11° NNE 02:35:19 11° NNE 02:35:34 10° NNE visible
29 Mar ? 02:53:17 13° NNE 02:53:17 13° NNE 02:53:53 10° N visible
